Location: Unspecified
(0.0000°N, 0.0000°E)
Time: 03:40:13
(UTC+00:00)

Kyokko - Visible Passes

Search period start: 14 May 2026 00:00
Search period end: 24 May 2026 00:00
Orbit: 642 x 3936 km, 65.4° (Epoch: 12 May)

Date Brightness Start Highest point End Pass type
(mag) Time Alt. Az. Time Alt. Az. Time Alt. Az.
14 May 10.0 19:02:15 10° NNW 19:20:45 77° WSW 19:43:57 10° SSE visible
14 May 11.3 21:30:10 10° W 21:41:54 17° WSW 21:54:28 10° SSW visible
15 May 10.4 19:36:53 10° NW 19:55:10 53° WSW 20:17:06 10° S visible
16 May 9.9 17:51:40 10° N 18:09:41 71° ENE 18:32:39 10° SSE visible
16 May 10.9 20:12:56 10° NW 20:29:48 34° WSW 20:49:01 10° S visible
17 May 10.1 18:25:10 10° NNW 18:43:45 82° WSW 19:06:59 10° SSE visible
17 May 11.3 20:51:48 10° WNW 21:04:43 19° WSW 21:18:36 10° SSW visible
18 May 10.4 18:59:37 10° NW 19:18:06 57° WSW 19:40:18 10° S visible
19 May 8.8 05:17:52 10° S 05:22:21 22° ESE 05:25:54 10° ENE visible
19 May 10.9 19:35:24 10° NW 19:52:42 37° WSW 20:12:26 10° S visible
20 May 10.1 17:48:05 10° NNW 18:06:45 86° WSW 18:30:00 10° SSE visible
20 May 11.3 20:13:38 10° WNW 20:27:32 21° WSW 20:42:35 10° SSW visible
21 May 10.5 18:22:23 10° NW 18:41:03 60° WSW 19:03:28 10° S visible
22 May 8.9 04:41:14 10° SSE 04:45:11 19° ESE 04:48:23 10° ENE visible
22 May 10.9 18:57:55 10° NW 19:15:36 40° WSW 19:35:49 10° S visible
23 May 7.0 05:13:23 10° SSW 05:18:58 57° ESE 05:23:09 10° NE visible
23 May 11.3 19:35:37 10° WNW 19:50:23 24° WSW 20:06:24 10° SSW visible
